GFSMA_925_thetae_057.txt.gz
Theta_e
306 306 306 306 306 307 310 314 316 318 320 326 330 330 323 319 320 319 316 319 323 330 337 338 339 338 336 334 334 333 333 336 340 338 338 338 337 334 331 328 328 329 331
305 305 305 305 305 304 306 308 309 310 312 314 315 317 325 329 324 317 316 316 315 315 331 336 338 338 337 336 335 335 334 335 339 338 334 336 338 337 331 329 330 331 332
305 305 304 304 304 305 304 304 304 306 306 307 309 309 311 316 325 328 324 318 314 313 316 325 332 336 338 336 334 334 334 333 338 339 336 332 337 338 336 330 330 330 331
304 302 303 302 303 304 304 304 304 305 306 307 308 307 308 308 308 310 318 324 322 317 313 316 327 334 337 336 333 333 332 332 334 337 339 334 332 334 336 332 331 331 330
301 301 302 302 303 303 302 302 304 304 304 305 305 306 306 305 305 307 306 309 317 324 318 315 324 332 332 335 334 331 331 331 331 334 339 338 334 331 332 333 331 332 334
301 301 301 301 301 301 301 302 302 302 303 304 305 305 305 305 304 304 307 309 313 316 323 322 315 327 332 331 332 331 330 330 330 330 333 337 336 335 334 332 332 330 334
301 301 301 301 301 301 301 302 301 302 303 303 304 305 305 305 307 306 308 311 313 310 317 320 321 317 328 329 325 328 329 329 330 329 329 331 336 335 336 332 331 331 331
300 300 300 300 300 300 300 300 300 301 301 301 303 305 303 305 306 312 306 306 308 307 313 310 312 313 315 324 326 322 322 327 328 330 329 329 330 334 334 334 332 331 331
299 299 299 299 299 299 299 299 300 300 300 301 302 303 303 304 305 305 305 304 304 306 305 307 308 312 313 315 323 324 320 317 323 328 328 327 327 329 332 334 332 332 331
299 299 298 298 298 298 299 299 300 299 299 299 300 300 302 304 306 305 304 304 304 304 304 306 309 311 311 312 314 320 321 319 316 319 329 326 327 327 327 329 330 329 329
298 298 298 298 298 298 298 298 298 298 298 298 299 299 300 301 301 304 304 302 304 305 305 305 306 308 309 310 311 313 316 318 317 315 325 328 325 326 325 326 327 328 328
298 298 298 298 298 298 298 298 298 298 297 297 298 298 299 299 300 301 302 302 304 305 304 303 303 303 305 308 309 310 312 313 316 316 315 325 326 324 324 324 323 323 325
297 297 298 298 298 297 297 297 297 297 297 297 297 297 298 298 299 300 301 301 301 303 304 304 303 302 302 306 308 309 313 312 313 315 314 316 324 324 323 322 322 321 321
297 297 297 297 297 297 297 297 297 296 296 296 297 297 297 297 298 298 300 300 301 299 303 303 303 302 303 306 308 309 310 313 312 314 314 314 320 322 322 321 321 320 320
296 296 296 296 296 295 295 295 295 295 295 295 295 295 296 296 297 297 298 299 301 301 301 301 303 302 303 304 307 308 308 313 312 313 314 314 318 320 320 321 320 320 319
295 295 294 294 294 294 294 294 294 294 295 295 295 295 295 295 295 296 297 298 300 300 300 301 302 303 303 305 306 308 309 312 313 314 314 314 313 319 318 319 320 320 319
294 293 293 293 293 293 293 294 294 294 294 294 295 295 295 295 295 295 296 298 299 299 299 300 300 301 302 304 307 307 308 309 311 313 315 313 313 312 314 317 318 320 319
293 293 293 293 293 293 293 293 294 294 294 294 295 295 295 295 295 295 295 296 298 299 300 300 301 302 304 304 304 306 307 308 311 311 315 313 312 314 313 313 315 319 320
292 292 292 293 293 293 294 294 294 294 294 294 294 295 295 295 295 295 295 295 297 298 299 300 301 302 303 304 306 306 307 308 310 310 312 313 313 313 313 314 314 317 318
292 292 293 293 294 294 294 294 294 294 294 295 295 295 295 296 295 295 295 295 297 298 299 299 301 302 303 304 305 306 307 309 310 312 312 313 314 313 312 313 313 314 317
292 292 293 293 293 294 294 294 295 295 295 296 296 296 297 296 297 297 296 295 296 298 299 299 301 302 303 304 305 306 307 309 309 311 313 312 313 314 311 312 313 313 315
293 293 293 293 294 294 295 297 298 298 298 298 297 297 297 297 297 298 298 300 300 297 298 300 300 301 302 303 302 305 306 306 306 309 311 312 313 313 313 312 311 312 313
293 293 294 294 294 295 296 298 299 299 299 299 299 298 297 297 297 298 297 299 300 300 301 298 301 301 302 304 302 303 306 306 307 308 309 309 312 312 310 311 310 312 313
293 294 294 294 295 295 297 299 300 300 299 298 299 298 297 296 296 297 297 297 297 298 298 298 301 300 302 302 303 304 305 306 306 308 309 309 308 309 309 311 310 312 313
294 294 294 295 295 296 297 300 301 300 299 298 298 297 296 296 296 297 298 298 298 298 299 300 297 300 303 303 304 304 305 305 302 305 308 308 308 308 308 309 308 308 309
294 295 295 295 296 297 297 299 300 301 299 298 298 297 297 297 297 298 298 298 299 298 299 300 300 301 303 303 304 304 305 303 302 302 306 307 306 308 305 307 306 308 308

GFSMA_925_thetae_060.txt.gz
Theta_e
305 305 304 304 304 304 304 305 306 307 308 310 313 316 321 326 328 322 318 318 316 319 327 336 339 339 338 335 336 336 336 337 338 339 338 338 338 335 332 329 332 331 331
304 304 303 303 303 303 304 304 304 304 305 305 306 308 308 310 316 324 326 322 317 315 315 316 337 338 338 338 336 335 335 334 332 336 338 336 338 338 334 330 329 331 331
301 301 302 302 302 302 303 303 303 304 304 304 305 306 306 306 306 307 310 316 321 321 315 313 318 336 336 337 338 336 335 334 332 335 337 336 334 335 337 332 329 330 332
301 301 301 301 301 301 301 301 301 302 303 303 304 304 304 304 304 304 304 305 307 314 321 319 313 320 335 336 337 337 335 334 333 332 337 338 333 335 337 335 331 331 333
301 300 300 300 300 300 300 301 301 301 302 302 303 303 303 304 304 304 303 303 304 307 312 321 322 316 326 335 336 336 335 333 332 332 333 336 336 333 335 335 332 332 333
300 300 299 299 299 299 299 300 300 300 300 301 301 302 302 303 303 303 305 307 312 311 312 316 321 323 318 327 334 332 334 333 332 331 331 332 335 336 335 332 332 331 333
300 299 299 299 298 298 298 299 299 299 299 300 301 301 302 302 304 306 303 307 305 305 304 311 310 313 321 319 325 332 332 332 331 331 330 330 331 335 335 335 332 332 330
299 299 299 298 298 298 298 298 299 299 299 300 300 301 300 302 304 308 306 304 304 304 304 303 303 306 310 315 316 321 329 328 329 330 330 330 329 331 334 335 335 332 331
299 298 298 298 298 298 297 298 298 299 298 299 299 300 299 300 301 301 304 304 304 304 304 304 303 304 307 312 312 313 321 328 324 327 329 331 329 329 329 332 332 334 332
298 298 298 298 297 297 298 298 298 298 298 297 298 298 299 301 301 301 301 303 302 302 304 304 303 306 305 305 309 311 312 321 326 324 325 329 330 328 327 328 331 331 333
298 297 297 297 297 297 298 298 297 297 297 297 297 297 297 298 299 301 300 300 301 302 302 304 304 304 303 302 305 308 309 312 319 324 325 324 329 327 327 327 328 332 331
297 297 297 297 297 297 297 297 297 297 297 297 297 297 297 297 297 297 297 299 299 300 301 302 304 304 303 303 302 303 308 308 311 315 319 323 321 327 326 326 324 327 328
296 296 296 296 296 295 296 296 297 297 297 296 296 296 296 296 297 297 298 298 298 299 300 301 302 302 303 303 303 302 304 308 310 312 313 317 319 321 325 325 324 326 324
296 296 295 295 295 295 295 294 294 294 294 294 295 295 295 295 296 296 297 297 297 297 299 300 301 302 303 303 302 302 302 306 308 310 312 316 317 316 322 324 322 322 322
295 294 294 293 293 293 293 293 293 293 294 294 294 294 294 294 295 295 296 297 296 297 297 299 300 301 302 302 302 302 302 305 307 308 312 313 317 315 315 323 322 321 321
294 293 293 292 292 293 293 293 293 293 293 293 293 294 294 294 294 295 295 295 296 297 297 298 299 300 301 302 302 302 303 305 308 308 311 313 316 315 317 322 321 320 319
293 292 292 292 292 292 292 293 293 293 293 293 293 293 294 294 294 294 295 295 295 296 297 298 299 299 300 300 300 300 301 305 308 308 312 313 315 315 314 319 319 320 320
292 292 292 292 292 292 292 292 292 293 294 294 294 294 294 294 294 294 294 294 294 295 296 297 298 298 299 300 300 301 300 303 307 307 308 312 314 314 315 316 319 319 319
292 291 292 292 292 292 293 293 294 294 294 294 294 294 294 294 294 294 294 294 294 294 295 296 297 299 300 300 300 302 304 303 305 305 308 311 314 313 314 315 314 317 318
291 291 292 292 292 292 293 293 294 294 294 294 294 294 294 294 294 295 295 295 295 294 295 296 297 298 299 300 301 301 303 304 305 307 308 310 314 313 313 312 312 312 314
291 292 292 293 293 293 294 294 295 296 296 296 295 295 295 296 296 296 296 295 295 294 295 296 297 298 298 300 301 302 304 304 305 306 307 310 312 314 313 314 314 311 310
291 292 293 293 293 294 295 297 298 299 299 299 298 298 297 298 298 299 299 300 299 295 295 295 297 298 298 299 301 302 303 304 305 306 309 311 310 314 314 312 312 312 311
292 293 293 294 294 294 296 298 300 300 301 300 301 299 299 298 297 298 297 298 298 299 299 298 297 297 298 299 301 302 304 305 306 307 310 311 311 311 314 313 312 312 311
293 293 294 294 295 295 297 299 300 301 301 300 300 300 299 298 297 296 297 297 296 296 297 297 298 296 298 300 301 302 303 304 305 307 309 308 310 311 310 312 312 311 311
293 294 294 295 295 295 297 299 299 299 300 300 300 300 298 298 297 298 298 297 297 297 297 298 299 299 299 301 301 302 302 303 302 307 308 307 308 309 310 311 311 311 311
294 294 295 295 295 296 297 298 300 300 300 300 301 299 299 299 297 298 298 297 297 297 298 298 298 301 300 300 303 303 302 303 302 303 307 306 307 307 306 308 310 310 310

GFSMA_925_thetae_063.txt.gz
Theta_e
303 303 303 302 302 303 303 303 304 305 306 305 308 310 312 314 318 320 325 324 321 318 316 322 331 338 339 335 334 332 336 336 336 337 338 337 339 336 333 331 328 330 331
301 301 301 301 301 302 302 302 302 303 304 304 306 307 308 309 310 311 311 314 320 320 319 315 317 324 337 338 339 338 332 331 334 331 335 337 336 338 336 333 330 330 332
300 300 300 300 300 300 300 300 301 301 303 303 304 305 306 306 307 307 307 306 308 311 317 320 316 314 324 337 337 338 337 331 334 335 329 334 335 335 337 334 331 332 332
300 300 299 299 299 299 299 299 300 300 302 302 303 304 305 305 306 306 306 306 305 304 307 315 319 319 315 328 336 335 338 336 333 335 334 336 335 334 333 336 333 333 333
301 300 299 299 298 298 298 298 299 299 300 301 301 302 303 304 304 305 305 305 304 305 309 309 312 318 321 317 331 336 336 337 336 332 333 333 336 335 333 334 335 334 335
301 300 300 299 298 298 298 298 298 299 300 300 301 301 302 302 303 303 305 306 308 310 308 307 312 315 319 322 318 332 335 337 336 333 331 332 332 335 335 334 336 333 333
300 300 299 299 298 298 297 297 298 299 299 300 301 301 301 302 304 305 306 306 308 308 307 306 307 307 310 314 320 319 332 333 334 334 333 332 331 333 334 336 333 333 332
299 299 299 298 298 297 298 298 297 299 299 300 300 301 304 302 305 308 305 305 305 306 306 306 306 305 306 310 312 317 318 329 333 333 332 332 332 330 333 334 336 334 332
299 298 298 298 297 297 298 297 298 298 298 299 299 299 302 302 302 301 302 303 302 302 304 305 304 305 305 308 308 310 314 315 325 332 332 331 332 331 330 330 334 335 335
298 298 297 297 297 297 297 298 297 298 298 298 298 298 299 299 301 301 300 301 301 301 302 302 304 305 306 307 306 304 308 310 313 324 330 329 330 332 330 329 331 331 333
298 297 296 296 296 297 297 297 297 297 297 297 297 298 298 298 299 301 301 300 300 301 301 302 302 302 304 306 306 305 303 305 309 312 324 329 327 328 331 329 327 329 331
296 296 296 296 296 296 296 296 296 296 296 296 297 297 297 298 298 299 301 300 300 299 299 300 301 302 303 305 306 304 303 302 305 309 311 322 328 326 329 329 326 326 331
296 296 295 295 295 295 295 295 295 295 295 295 295 296 296 296 297 297 298 299 300 299 299 299 299 300 301 302 304 304 303 303 302 306 311 313 320 324 324 328 327 327 329
295 294 294 294 294 294 294 294 294 294 294 294 294 294 295 295 295 296 296 297 299 299 299 298 298 299 300 301 302 303 304 303 302 303 308 310 314 317 319 321 326 325 324
294 294 294 294 293 293 293 293 294 294 294 294 294 294 294 295 295 295 295 296 297 299 300 298 298 298 300 301 302 304 304 303 302 301 306 308 310 313 318 320 321 325 324
293 293 292 292 293 293 293 293 293 293 293 294 294 294 294 294 294 295 295 295 296 297 300 297 297 297 298 299 301 303 303 304 302 302 304 308 309 312 317 319 322 322 322
292 292 292 292 292 292 293 293 293 293 293 294 294 294 294 294 294 295 295 295 295 296 298 297 296 297 298 299 300 301 302 302 302 303 304 309 309 311 314 319 319 319 320
291 292 292 292 292 292 293 293 293 293 293 294 294 294 294 294 294 294 295 295 295 295 296 297 296 297 297 298 299 300 301 301 301 303 304 306 309 313 313 317 319 319 319
291 292 292 292 292 293 293 293 293 294 294 294 294 294 295 295 295 294 294 295 295 295 295 296 296 296 297 297 299 300 302 302 302 303 305 305 306 308 312 318 316 320 319
291 292 292 292 292 293 293 294 294 294 295 295 295 295 295 295 295 295 295 295 295 295 296 296 296 296 297 298 299 299 300 301 303 304 306 307 307 307 310 316 315 316 319
291 292 292 292 293 294 294 295 296 297 297 297 297 297 297 296 296 297 295 295 296 296 296 296 296 297 298 298 299 300 301 301 302 303 305 307 307 310 312 315 314 316 317
292 292 292 293 294 294 295 297 299 299 299 300 300 300 300 300 300 300 301 300 296 297 296 296 297 297 298 298 298 299 301 302 305 304 305 306 309 310 313 315 314 315 315
292 292 293 294 294 294 296 298 300 299 299 300 300 300 300 301 300 299 299 300 300 301 300 296 296 297 297 298 298 299 300 301 303 303 305 306 308 310 313 314 314 313 312
293 293 293 294 295 295 297 298 299 299 299 299 298 299 299 300 299 300 299 298 298 298 298 298 298 298 298 298 298 299 300 301 303 304 305 308 309 310 312 313 313 314 312
293 293 294 295 295 295 296 298 298 299 299 299 299 299 300 300 300 300 300 297 297 297 297 297 298 298 298 298 298 299 301 302 301 304 306 307 309 310 311 312 313 313 313
293 293 294 295 295 296 296 298 298 298 299 300 300 300 302 301 301 300 299 299 298 297 297 297 298 298 300 300 300 300 301 301 302 302 305 308 309 308 309 310 308 311 312

GFSMA_925_thetae_069.txt.gz
Theta_e
308 308 308 307 307 307 306 307 307 307 307 308 308 308 309 309 310 310 314 317 316 315 320 323 321 318 324 332 339 338 338 337 337 337 337 339 338 339 335 332 330 332 332
307 307 307 307 306 306 305 306 306 306 306 307 307 307 307 308 309 309 310 310 311 310 310 311 319 322 319 323 328 336 337 335 335 335 333 337 337 337 338 334 332 329 332
308 308 307 307 306 306 306 305 305 306 306 306 306 306 306 307 308 308 308 309 309 310 310 309 308 312 321 323 327 326 336 337 334 335 332 330 334 337 336 338 334 329 332
308 308 308 307 306 306 306 306 305 305 305 305 306 306 306 306 306 307 307 307 308 309 310 310 310 313 310 320 325 328 326 336 336 334 336 332 330 330 335 336 337 333 330
307 307 307 307 306 306 306 305 305 305 305 305 305 305 305 306 307 307 307 307 307 307 309 311 313 312 310 309 319 326 329 328 335 336 333 336 332 327 333 335 336 337 334
306 307 307 306 306 306 306 306 305 305 305 304 304 305 305 305 305 306 306 307 308 308 309 314 314 312 311 312 310 318 325 329 329 336 336 333 334 331 327 335 334 336 336
306 306 306 306 305 305 305 305 305 305 304 304 304 304 304 304 306 307 306 307 309 309 309 309 311 311 310 310 310 310 316 323 329 331 338 337 336 335 332 334 335 334 336
305 305 305 305 305 304 304 304 304 304 304 304 304 304 305 305 305 307 307 305 304 306 305 308 309 310 309 310 310 309 309 310 316 326 333 337 336 336 334 329 333 336 334
304 304 304 304 303 303 303 303 303 303 303 302 302 303 304 304 304 303 304 304 304 304 304 304 305 306 306 306 307 306 308 309 311 316 322 329 335 336 336 333 328 334 335
304 304 304 303 303 303 303 302 302 302 301 302 302 302 302 302 304 304 303 303 303 303 303 303 303 303 304 305 305 306 307 308 309 309 313 319 325 334 336 335 332 328 333
305 304 303 303 302 302 302 301 301 301 300 300 301 301 301 301 301 303 304 303 302 302 303 303 303 303 304 304 305 305 305 305 308 307 308 311 318 324 333 334 334 330 330
305 304 303 303 302 301 300 300 300 300 300 300 300 300 300 301 301 302 303 303 303 302 302 302 302 302 303 303 303 303 304 304 306 309 309 309 311 318 324 331 333 334 330
304 303 302 301 300 300 299 299 299 299 298 298 298 299 299 299 299 300 300 301 302 301 301 301 301 302 302 302 302 302 302 303 304 306 307 309 309 312 317 323 330 333 333
302 302 301 300 299 298 298 297 297 297 297 298 298 298 299 299 299 300 300 301 302 302 301 301 301 301 301 301 302 302 302 302 303 305 306 308 308 310 314 318 324 329 331
301 300 299 298 298 297 297 297 297 297 297 298 298 298 299 299 299 299 299 300 300 301 301 301 301 300 300 301 301 301 301 302 302 302 305 306 307 307 309 316 319 324 328
299 298 297 297 297 296 296 296 297 297 298 298 298 298 298 299 298 298 298 297 297 297 299 298 298 299 299 300 300 300 300 301 302 304 306 306 308 308 309 312 315 318 324
298 297 297 296 296 295 296 296 297 297 298 298 298 298 297 297 297 296 296 296 296 296 297 297 297 297 298 299 299 300 300 300 301 302 304 305 305 305 306 308 308 310 318
296 296 295 295 295 295 296 297 297 298 298 298 297 297 297 297 296 297 297 297 297 297 297 297 297 297 296 297 298 299 300 300 301 302 302 306 304 306 304 303 305 307 310
295 295 295 295 295 296 296 297 297 297 297 297 297 297 297 297 297 297 297 297 297 297 297 298 297 297 297 296 296 297 298 300 300 300 301 303 304 304 303 303 303 308 309
295 295 295 295 296 296 297 297 296 297 297 297 297 297 298 298 298 297 298 298 298 297 297 298 297 297 297 297 297 297 298 299 300 300 301 301 302 303 302 302 303 308 311
294 295 295 296 296 296 296 296 297 297 298 298 299 299 299 299 300 300 299 298 298 298 298 298 298 298 298 298 298 297 298 299 300 301 302 302 302 303 303 306 303 306 308
294 295 295 295 294 294 295 296 297 298 299 299 300 300 300 300 300 301 302 302 302 300 298 298 298 298 299 299 299 298 299 301 302 300 301 303 303 304 306 305 308 306 307
294 295 295 294 294 295 295 297 298 299 299 299 300 299 300 300 300 300 300 301 301 302 304 300 298 299 299 299 299 299 299 300 300 300 300 302 303 303 304 307 307 309 308
295 294 294 294 295 295 296 297 298 299 298 298 299 299 299 299 299 300 300 300 300 300 300 301 301 299 299 300 299 299 300 300 300 300 300 302 303 304 305 305 308 308 310
293 293 294 294 294 294 296 297 297 298 298 298 298 298 298 298 299 301 302 304 303 301 301 301 302 301 301 299 298 297 299 300 301 300 301 302 303 304 305 306 307 308 311
293 293 293 294 294 295 295 296 298 298 298 297 296 297 296 298 300 301 301 303 304 302 301 300 299 300 300 300 300 299 299 300 301 302 301 302 303 304 306 305 307 307 308

GFSMA_925_thetae_072.txt.gz
Theta_e
308 307 307 306 306 306 305 305 305 305 306 306 306 307 307 307 308 308 309 309 310 310 310 310 317 324 324 326 332 338 338 336 334 338 335 337 338 338 337 332 330 331 332
308 308 307 307 306 306 306 305 305 305 305 306 306 306 306 306 306 307 308 308 309 310 310 310 313 315 320 326 328 328 334 337 335 331 331 333 337 338 339 335 332 329 332
308 308 308 307 307 306 306 306 305 305 305 305 305 305 305 306 306 306 306 306 307 308 308 310 312 313 315 320 326 329 329 332 337 334 332 329 330 336 337 338 335 330 331
308 308 307 306 306 306 306 305 305 305 305 305 305 305 305 305 305 305 307 307 307 307 307 307 308 313 315 315 316 323 329 330 332 337 334 333 329 327 334 336 337 334 329
307 307 307 306 306 306 306 306 305 305 305 305 305 304 304 304 305 306 305 305 306 307 308 309 309 311 313 315 317 318 322 328 330 332 336 333 333 329 325 332 335 337 334
306 306 306 306 306 305 306 305 305 305 304 305 304 304 304 304 303 304 305 306 307 308 309 309 310 311 311 312 316 314 313 318 327 330 332 336 333 333 329 325 333 335 337
306 305 305 305 305 305 304 304 304 304 304 304 304 304 303 303 304 304 304 305 306 307 305 308 309 310 310 310 311 314 313 315 321 325 330 332 336 335 334 329 329 334 335
306 305 305 305 304 304 303 303 304 303 303 303 303 302 301 302 304 303 303 302 303 304 304 305 306 305 307 307 306 308 308 309 311 312 317 326 332 334 336 334 327 332 334
306 305 304 304 304 303 303 303 303 303 303 302 302 302 300 300 301 302 302 302 302 302 303 303 304 304 305 305 305 305 305 305 309 312 315 318 324 330 334 334 334 328 333
306 305 304 304 303 303 302 303 302 302 301 301 301 301 301 301 300 300 301 301 302 302 302 302 302 303 303 303 303 304 305 307 308 310 311 312 315 321 327 334 334 333 328
306 305 305 304 303 303 302 302 301 301 301 300 300 300 300 300 300 300 300 299 301 302 302 302 302 302 302 302 303 303 303 304 306 310 311 310 311 312 319 325 332 333 332
306 305 304 303 303 302 301 300 300 299 299 299 299 299 299 299 299 299 299 299 299 300 301 301 301 301 301 302 302 302 302 302 303 305 307 310 311 311 312 319 325 332 333
304 303 303 302 301 300 300 299 299 299 298 299 298 298 298 298 298 299 298 298 298 299 299 300 300 300 300 300 301 301 302 302 302 304 305 306 308 310 311 312 318 323 327
303 302 302 300 300 299 298 298 297 297 297 297 298 298 298 298 298 299 299 298 298 298 299 299 300 300 300 301 301 301 301 301 302 303 303 305 307 307 309 310 313 318 323
302 301 300 299 298 297 297 297 297 296 297 297 297 298 298 298 298 299 299 299 299 299 298 298 298 299 299 298 299 300 301 302 302 302 304 305 304 306 307 309 310 315 319
300 300 299 297 297 297 296 296 296 296 296 297 297 298 298 298 298 298 298 298 297 297 297 297 296 296 297 297 297 299 299 300 301 301 302 302 303 307 306 307 308 311 316
299 298 297 296 296 295 295 295 295 296 296 297 298 298 298 297 297 297 297 297 297 296 296 296 296 296 296 296 296 296 297 298 299 300 301 301 302 305 308 309 308 309 311
297 296 296 295 295 295 295 295 296 296 297 297 297 297 297 297 297 297 297 296 296 296 296 296 296 296 297 297 297 296 296 296 298 299 301 302 303 303 306 305 304 303 303
296 295 295 295 295 295 295 296 297 297 296 296 296 297 297 297 297 297 297 297 297 297 297 297 297 297 297 297 297 297 296 296 296 298 300 301 301 302 305 305 305 303 302
295 294 294 294 295 295 296 295 295 296 296 296 297 297 297 297 297 297 298 297 297 297 298 297 297 297 297 297 297 297 296 296 297 297 298 300 300 301 302 304 304 304 302
294 294 294 295 295 295 295 294 295 296 297 297 298 298 298 298 299 301 301 300 298 298 298 298 298 297 297 297 297 297 297 296 296 296 297 300 301 300 302 304 304 302 302
294 294 294 295 294 294 294 295 297 297 298 298 299 299 298 299 299 300 300 301 302 302 299 298 298 298 298 298 297 297 297 297 297 298 299 299 299 301 301 302 302 302 303
294 294 294 293 293 294 295 296 297 298 298 298 298 299 298 298 299 298 299 299 300 300 301 302 300 298 299 298 298 298 298 297 297 299 300 300 300 301 302 302 304 305 304
293 294 293 293 293 293 294 295 297 298 298 298 298 297 298 297 298 298 298 299 300 300 300 300 301 301 299 298 298 299 299 298 298 298 299 299 300 301 301 302 302 303 306
294 293 292 292 293 293 294 296 297 297 297 297 297 297 297 297 297 297 299 299 300 301 301 303 303 301 301 300 299 299 299 299 299 299 300 300 299 300 301 301 303 304 305
293 292 292 293 294 294 294 296 297 297 297 297 295 295 296 296 297 297 298 300 300 300 301 302 303 303 303 303 302 300 298 298 298 299 299 300 300 301 302 302 301 304 306

GFSMA_925_thetae_075.txt.gz
Theta_e
307 306 306 306 306 306 306 305 305 305 305 305 305 305 306 306 306 306 307 307 308 309 310 313 314 316 322 327 327 331 337 337 334 333 335 337 337 339 337 332 331 331 332
307 307 307 306 306 306 306 305 305 305 305 305 304 304 305 305 305 305 305 306 306 307 307 312 314 314 315 317 324 329 330 334 337 334 330 331 335 337 338 337 331 328 330
308 308 307 306 306 306 306 305 305 305 305 304 304 304 304 304 304 304 305 306 307 307 307 307 307 312 314 316 318 319 327 331 332 336 334 329 328 335 337 338 335 331 329
307 307 307 306 306 306 306 305 305 305 304 304 304 304 304 304 304 304 305 305 305 306 306 307 308 310 312 316 317 319 320 327 331 332 336 335 331 327 333 337 337 335 330
307 307 306 306 306 305 305 305 304 304 304 304 303 303 303 303 303 303 304 305 305 305 308 308 308 309 309 315 315 317 316 317 324 330 332 335 335 332 328 330 336 337 335
306 306 306 306 306 305 304 304 304 304 304 303 303 302 302 301 303 304 304 304 304 304 304 304 308 309 309 311 312 314 315 314 316 319 328 331 333 335 333 328 330 335 337
306 306 305 305 305 304 304 303 303 303 303 303 303 302 301 303 302 302 303 302 302 302 303 303 304 304 306 310 311 311 314 313 312 316 316 321 330 333 335 334 328 329 334
306 305 305 305 304 304 303 303 303 303 303 302 302 301 298 300 303 301 301 301 301 302 301 302 303 302 303 304 304 305 306 309 309 311 312 313 319 327 332 334 334 329 330
307 306 305 304 304 304 303 302 302 302 302 301 301 301 298 297 299 300 300 300 301 301 300 300 301 301 301 302 303 303 303 304 307 309 312 313 316 319 325 330 333 334 331
307 307 305 304 304 304 303 302 302 302 301 300 300 300 300 300 297 298 300 300 299 300 300 301 301 301 302 302 302 302 303 304 304 309 311 312 312 313 316 322 328 333 334
307 306 305 304 304 303 303 302 301 300 300 300 299 299 299 299 299 297 298 298 298 299 299 299 300 300 300 300 300 301 302 302 302 307 307 309 312 312 313 314 319 325 330
306 305 304 303 303 302 302 301 300 299 299 299 299 299 299 298 297 297 295 297 297 297 298 298 299 299 299 300 300 300 300 303 304 304 304 307 308 309 311 312 314 317 324
304 303 303 303 302 301 300 299 299 298 298 298 297 297 297 298 297 297 297 297 297 298 298 298 298 299 299 299 299 300 301 302 301 302 304 304 306 307 308 310 312 313 316
303 302 302 302 301 300 299 298 297 297 297 297 296 296 297 297 297 297 298 297 297 298 298 298 298 299 299 299 299 299 299 300 302 304 303 303 304 305 307 308 309 311 312
302 301 301 300 299 298 297 297 297 296 296 296 296 296 297 297 297 297 298 298 298 299 298 298 298 298 298 298 298 298 298 298 300 302 304 303 304 306 306 306 308 309 311
301 300 298 297 296 296 296 295 295 295 295 295 295 296 296 297 297 298 297 297 297 297 297 297 297 296 296 296 296 296 296 297 298 299 301 303 302 303 304 306 307 307 309
298 297 296 296 295 295 295 295 295 295 295 295 296 296 297 297 297 297 297 297 297 297 297 296 296 296 296 296 296 296 296 296 296 297 299 302 302 301 302 304 305 308 308
297 296 295 295 294 294 294 295 295 295 296 296 296 296 296 296 297 297 297 297 297 296 296 296 296 295 295 296 296 296 296 296 296 296 298 300 302 302 303 303 304 308 309
295 295 294 294 294 294 294 294 295 295 295 295 295 296 296 296 296 297 297 297 296 296 296 295 296 296 296 296 296 296 296 296 297 297 298 298 300 302 302 302 304 305 306
294 294 294 294 294 294 294 295 294 295 295 295 296 296 297 297 297 297 297 297 297 297 297 297 297 297 297 297 297 297 296 296 296 297 297 297 298 299 301 301 303 305 306
294 293 293 293 293 294 294 294 295 295 296 296 296 297 297 297 298 300 300 300 299 298 297 298 297 297 298 297 297 297 296 296 296 296 296 296 296 297 298 299 302 304 304
293 293 293 293 293 293 293 294 295 296 297 297 298 298 298 298 298 299 299 301 300 300 300 299 298 298 298 298 297 297 297 296 295 296 296 296 297 298 299 301 301 301 303
293 293 293 293 292 292 293 295 296 296 297 297 297 297 298 297 298 298 297 298 298 298 298 299 300 299 298 298 298 298 298 297 297 297 298 298 299 299 299 300 302 302 301
292 292 293 292 292 292 293 295 296 297 297 297 296 296 296 296 296 297 297 298 298 298 298 299 300 300 300 299 299 299 299 298 298 297 297 297 298 299 299 300 300 301 302
293 293 292 292 292 292 294 295 296 297 296 296 296 295 295 295 296 297 297 298 297 297 298 300 301 302 303 302 300 299 299 299 299 298 297 297 298 299 298 299 300 300 302
292 292 292 293 293 293 293 295 296 296 294 296 294 295 295 295 295 296 296 297 297 297 298 299 300 300 300 304 302 300 299 300 299 299 298 299 299 299 299 299 299 299 300

GFSMA_925_thetae_078.txt.gz
Theta_e
306 306 306 306 306 306 305 305 305 305 305 304 304 303 304 305 305 305 305 305 306 307 314 314 314 315 316 319 324 329 332 336 336 337 336 336 337 338 336 331 329 328 329
307 306 306 306 306 306 305 305 305 305 304 304 303 303 303 303 303 303 304 305 306 306 307 312 313 313 314 316 319 323 327 331 334 336 335 332 334 336 338 337 332 329 327
307 306 306 306 306 306 305 305 304 304 304 303 303 302 302 302 303 303 303 304 305 305 305 306 310 311 312 315 318 318 319 324 331 333 336 333 331 334 335 337 336 332 329
307 307 306 306 305 305 305 304 304 304 304 303 302 302 301 301 301 301 303 304 304 304 305 306 308 309 311 314 316 317 319 321 326 331 332 335 335 331 332 335 337 336 333
307 307 306 306 306 305 304 304 304 303 303 303 302 302 301 301 302 303 303 303 302 303 304 306 309 310 311 313 313 314 317 316 316 321 329 332 333 334 331 331 335 337 336
306 306 306 306 305 305 304 304 303 303 303 302 302 302 301 302 301 301 302 302 301 301 301 302 303 304 306 311 316 313 314 316 316 319 322 326 331 333 332 334 332 334 337
306 306 305 305 305 305 304 303 303 302 302 302 302 301 301 301 300 301 300 300 301 300 301 300 300 302 302 303 304 306 310 314 313 312 313 315 317 323 330 333 334 329 332
306 306 306 305 304 304 304 303 302 302 302 302 301 299 296 299 301 301 300 300 299 300 299 298 299 300 301 301 302 302 303 304 308 310 310 312 313 316 323 329 331 332 330
306 306 306 305 305 304 304 303 302 302 302 301 300 300 296 296 297 299 299 299 299 299 298 299 300 300 300 300 301 301 302 303 308 308 309 311 314 315 317 322 326 330 333
307 307 307 306 304 304 304 303 302 302 301 300 300 299 300 299 296 296 298 298 298 298 298 298 298 298 298 299 300 300 301 302 305 306 308 309 311 313 314 315 317 323 329
308 307 306 305 303 303 303 302 301 301 300 299 299 298 298 298 298 295 297 296 297 297 297 297 297 298 298 298 298 299 300 303 305 306 306 307 308 310 312 314 315 316 320
307 306 304 303 303 302 302 301 300 299 299 298 298 298 297 297 296 295 292 295 296 296 297 297 297 298 298 298 298 298 299 301 303 304 305 305 305 307 308 310 312 314 316
304 303 303 302 302 301 300 300 299 298 297 297 297 297 296 296 296 296 296 295 295 296 297 297 297 298 298 298 299 299 299 301 301 304 305 304 304 305 306 307 309 311 313
303 302 302 301 300 300 299 298 297 297 297 296 296 296 296 296 296 296 295 296 296 296 297 297 298 298 298 298 299 299 299 298 299 301 303 305 306 304 304 306 308 309 310
301 301 300 299 298 297 296 296 295 295 295 295 295 295 295 295 295 296 296 296 296 296 297 297 297 297 297 297 297 297 297 297 298 299 300 303 304 306 304 305 306 306 308
300 299 298 297 296 296 295 295 294 294 294 294 294 295 295 295 296 296 296 297 297 297 297 297 296 296 296 296 296 296 296 296 297 298 299 301 302 304 304 305 305 305 307
299 298 296 295 295 294 294 294 294 294 294 294 295 295 296 296 296 296 296 297 297 297 297 296 296 296 296 296 296 296 296 296 296 297 298 299 300 302 304 303 303 303 305
296 295 295 294 294 294 294 294 294 294 294 295 295 294 294 295 295 295 296 296 296 296 296 296 296 296 296 296 296 296 296 296 296 296 298 299 299 300 302 304 303 303 304
295 294 294 293 293 293 293 293 294 294 294 294 295 295 295 295 295 295 296 296 296 296 296 296 296 296 295 295 295 295 296 296 296 297 297 299 299 300 300 302 303 302 304
294 294 293 293 293 293 293 293 293 294 294 295 295 295 295 296 296 296 296 296 296 296 296 296 296 296 296 296 296 296 295 296 296 297 297 297 298 298 298 300 302 302 301
293 293 293 292 292 293 293 293 294 294 295 295 296 297 297 297 298 298 298 297 297 297 297 297 297 297 297 297 297 297 296 296 296 296 296 297 297 297 297 299 301 302 301
293 293 292 292 292 293 293 293 294 295 296 296 296 296 297 298 297 298 299 299 300 300 300 299 299 297 298 298 298 298 297 297 297 296 296 296 296 296 297 296 298 300 298
293 292 292 292 293 292 292 294 295 296 296 297 296 296 296 296 296 296 296 297 297 297 298 299 299 299 299 299 298 298 298 298 297 297 297 295 297 296 297 297 299 298 300
292 292 292 292 292 292 293 294 295 296 296 296 296 295 295 295 294 295 296 296 297 297 297 297 297 297 297 298 299 299 298 298 298 298 297 297 297 298 298 299 299 300 301
292 292 291 291 292 292 293 294 295 295 296 295 296 295 296 295 295 296 296 296 296 296 296 297 297 299 300 301 302 301 299 299 299 299 298 297 297 297 297 297 298 299 299
291 290 291 291 292 292 292 294 295 296 296 296 295 295 295 295 295 295 295 295 295 295 296 296 297 297 299 300 300 298 300 300 299 299 298 296 297 297 297 298 298 298 298

GFSMA_925_thetae_084.txt.gz
Theta_e
305 305 305 305 305 305 305 304 304 304 303 302 302 301 301 301 301 301 302 303 304 305 307 314 317 315 315 316 319 322 324 329 334 335 336 335 334 335 333 330 332 330 327
306 305 305 305 305 305 304 304 304 304 304 303 302 302 302 301 301 301 302 302 303 305 305 306 307 315 314 314 316 319 320 322 324 331 334 335 333 333 335 335 331 329 325
306 306 306 305 305 305 304 304 304 304 304 304 303 302 302 301 303 302 302 302 302 304 311 312 318 318 313 313 316 318 318 319 322 327 332 334 333 334 332 333 336 333 327
306 305 305 305 305 305 304 304 304 304 303 303 303 303 302 301 301 302 302 301 301 302 303 305 308 312 315 319 318 316 315 318 318 318 325 330 333 333 333 334 332 334 333
306 306 306 305 305 305 305 304 304 303 303 303 303 302 302 301 301 300 300 300 300 300 301 301 301 303 306 311 312 314 317 318 317 317 320 325 328 331 333 332 332 333 334
306 306 306 305 305 305 305 304 303 303 302 302 302 302 302 301 300 300 300 299 299 299 299 299 299 299 300 302 303 311 313 313 316 318 315 315 317 321 326 330 332 331 332
306 306 306 305 305 305 304 304 303 303 302 302 301 302 301 301 300 300 300 299 299 298 298 297 297 298 299 299 300 304 307 310 312 313 313 314 314 315 317 321 328 331 331
306 306 306 305 305 305 304 304 303 303 302 302 300 298 295 299 300 300 300 299 298 298 298 297 297 296 296 297 299 300 300 304 308 311 311 311 312 313 316 316 320 327 330
307 306 306 305 305 305 304 303 303 302 302 301 300 300 295 295 295 299 299 298 298 297 297 296 296 296 296 296 296 297 298 300 305 307 310 310 311 312 313 316 317 320 325
307 306 306 305 305 304 303 303 302 302 301 301 299 299 299 298 295 294 297 297 297 296 296 295 296 295 296 296 296 297 297 297 301 305 307 310 309 310 311 313 315 316 318
306 306 305 304 304 303 303 302 302 301 300 300 299 298 298 297 297 294 295 294 296 295 295 295 295 295 295 296 296 297 297 300 302 303 304 306 308 309 310 311 313 315 316
307 306 305 304 303 302 302 301 300 300 299 298 298 297 297 296 295 294 290 292 292 294 295 294 295 295 295 296 296 297 299 300 302 303 304 305 306 307 308 309 310 311 313
304 303 302 302 301 301 300 299 299 298 298 297 296 296 296 295 295 295 294 294 292 294 294 294 295 295 296 296 296 297 297 300 301 303 303 303 304 306 307 308 308 309 311
302 302 301 300 300 299 297 297 296 296 295 295 294 294 294 294 294 294 294 293 293 293 293 294 294 295 296 296 296 297 297 299 299 300 301 301 302 303 305 306 308 308 309
301 300 299 298 297 297 296 295 294 294 294 293 293 293 293 293 293 293 293 293 292 293 294 294 294 295 296 296 296 296 296 296 297 298 299 300 301 302 303 304 306 307 307
299 298 297 296 295 295 294 294 294 293 293 293 293 293 293 293 293 293 293 293 293 292 293 294 295 295 296 296 296 296 296 296 297 298 299 299 300 301 302 303 304 306 309
298 297 295 295 295 294 294 293 293 293 292 293 293 293 293 293 293 294 294 294 294 293 293 294 295 295 295 295 295 295 296 296 296 296 297 298 299 300 301 302 303 305 307
296 295 295 294 294 293 293 292 292 292 292 292 293 293 293 293 293 294 294 293 293 293 293 293 294 294 294 295 295 296 296 296 295 296 297 298 299 300 300 301 301 303 305
295 295 294 294 293 293 292 292 292 292 292 292 293 293 293 293 293 293 293 293 293 293 293 293 294 294 294 295 295 295 295 295 295 296 296 298 299 300 301 301 301 302 303
295 294 294 293 293 293 292 291 291 292 292 293 294 293 294 294 294 294 294 294 294 293 294 294 294 295 295 295 295 295 294 295 295 296 296 297 297 298 300 301 301 302 301
294 294 293 293 293 292 291 292 293 294 294 293 293 294 295 295 296 297 297 297 297 296 294 295 296 295 296 296 296 296 296 296 297 297 296 297 297 298 299 300 301 301 302
294 293 293 292 291 292 291 293 293 293 294 294 295 295 296 296 295 296 297 297 299 298 298 298 296 294 295 296 296 297 297 297 296 297 297 297 297 297 297 297 298 299 301
293 293 292 291 291 291 291 292 294 294 295 295 296 295 295 295 296 295 295 296 296 296 297 297 297 297 297 297 297 297 297 297 297 297 297 296 297 297 298 298 298 298 298
293 292 291 291 290 290 291 293 294 295 294 294 294 295 295 295 294 295 295 296 295 296 295 295 295 296 296 296 296 297 297 297 297 297 297 297 297 296 297 297 298 298 298
292 291 291 290 289 290 291 293 293 293 294 294 294 295 295 294 295 296 296 296 296 296 295 296 296 297 297 297 298 297 296 297 297 297 298 297 298 297 296 297 298 298 298
291 290 290 289 290 291 292 293 293 294 295 294 295 294 295 296 296 297 296 296 296 295 293 293 293 294 294 295 296 297 297 297 297 295 297 298 298 298 296 297 298 297 297